Torna al catalogo

JILIN-01-09

AttivoScienzaSSO
NORAD 43943·PAYLOAD·🇨🇳 China

Lanciato Jan 21, 2019 da Jiuquan Satellite Launch Center

Loading…

Prossimi Passaggi (prossime 24 ore)

TLE

AggiornatoSource: Space-Track

Epoca: Sep 14, 2026, 22:09 UTC

1 43943U 19005B   26257.92357115  .00004102  00000-0  18716-3 0  9996
2 43943  97.4735 352.1588 0003477 119.8973 240.2609 15.21174999422785

Traccia JILIN-01-09 in tempo reale con AllMySat

Download on the App Store